Weather History for KIND - September, 2012

Change the Weather History Date:

Saturday, September 29, 2012

  Actual Average Record
Temperature  
Mean Temperature 62 °F 61 °F  
Max Temperature 73 °F 72 °F 97 °F (1953)
Min Temperature 51 °F 50 °F 34 °F (1970)
Degree Days  
Heating Degree Days 3 6  
Month to date heating degree days 82 64  
Since 1 July heating degree days 82 68  
Cooling Degree Days 0 2  
Month to date cooling degree days 102 127  
Year to date cooling degree days 1530 1048  
Growing Degree Days 12 (Base 50)    
Moisture  
Dew Point 49 °F    
Average Humidity 62    
Maximum Humidity 89    
Minimum Humidity 35    
Precipitation  
Precipitation 0.00 in 0.10 in 2.45 in (1955)
Month to date precipitation 7.73 3.01  
Year to date precipitation 30.22 32.34  
Snow  
Snow 0.00 in 0.00 in 0.00 in ()
Month to date snowfall T 0.0  
Since 1 July snowfall T 0.0  
Since 1 September snowfall T 0.0  
Snow Depth 0.00 in    
Sea Level Pressure  
Sea Level Pressure 30.04 in    
Wind  
Wind Speed 5 mph (NNW)    
Max Wind Speed 13 mph    
Max Gust Speed 16 mph    
Visibility 10 miles    
Events      
T = Trace of Precipitation, MM = Missing Value Source: NWS Daily Summary

Daily Weather History Graph

Daily Weather History Graph

Search for Another Location

Airport or City:

Trip Planner

Search our weather history database for the weather conditions in past years. The results will help you decide how hot, cold, wet, or windy it might be!

Date:

Astronomy

Sep. 29, 2012 Rise Set
Actual Time 7:39 AM EDT 7:30 PM EDT
Civil Twilight 7:13 AM EDT 7:56 PM EDT
Nautical Twilight 6:41 AM EDT 8:28 PM EDT
Astronomical Twilight 6:10 AM EDT 8:59 PM EDT
Moon 7:02 PM EDT (9/29) 7:10 AM EDT (9/29)
Length of Visible Light 12h 43m
Length of Day
11h 50m
Full, 100% of the Moon is Illuminated
Sep 29
Full
Sep 29
Full
Oct 8
Last Quarter
Oct 15
New
Oct 21
First Quarter

Hourly Weather History & Observations

Time (EDT) Temp. Dew Point Humidity Pressure Visibility Wind Dir Wind Speed Gust Speed Precip Events Conditions
12:54 AM 57.9 °F 52.0 °F 81% 30.07 in 10.0 mi NNE 6.9 mph - N/A   Overcast
1:54 AM 55.9 °F 51.1 °F 84% 30.07 in 10.0 mi NNE 6.9 mph - N/A   Mostly Cloudy
2:54 AM 55.0 °F 51.1 °F 86% 30.07 in 10.0 mi NNE 6.9 mph - N/A   Scattered Clouds
3:54 AM 55.0 °F 50.0 °F 83% 30.07 in 10.0 mi North 6.9 mph - N/A   Clear
4:54 AM 53.1 °F 50.0 °F 89% 30.06 in 10.0 mi North 5.8 mph - N/A   Partly Cloudy
5:19 AM 53.6 °F 50.0 °F 88% 30.07 in 10.0 mi North 6.9 mph - N/A   Scattered Clouds
5:54 AM 53.1 °F 50.0 °F 89% 30.07 in 10.0 mi NNE 6.9 mph - N/A   Mostly Cloudy
6:54 AM 52.0 °F 48.9 °F 89% 30.08 in 10.0 mi NNE 8.1 mph - N/A   Scattered Clouds
7:54 AM 52.0 °F 48.9 °F 89% 30.09 in 9.0 mi NE 4.6 mph - N/A   Mostly Cloudy
8:54 AM 54.0 °F 50.0 °F 86% 30.10 in 9.0 mi North 5.8 mph - N/A   Mostly Cloudy
9:54 AM 57.9 °F 50.0 °F 75% 30.10 in 9.0 mi Calm Calm - N/A   Scattered Clouds
10:54 AM 63.0 °F 54.0 °F 72% 30.10 in 10.0 mi NNE 3.5 mph - N/A   Scattered Clouds
11:54 AM 66.9 °F 52.0 °F 59% 30.09 in 10.0 mi NNE 4.6 mph - N/A   Scattered Clouds
12:54 PM 69.1 °F 51.1 °F 53% 30.07 in 10.0 mi North 4.6 mph - N/A   Scattered Clouds
1:54 PM 71.1 °F 51.1 °F 49% 30.04 in 10.0 mi West 4.6 mph - N/A   Partly Cloudy
2:54 PM 72.0 °F 50.0 °F 46% 30.01 in 10.0 mi Variable 4.6 mph - N/A   Scattered Clouds
3:54 PM 72.0 °F 48.0 °F 43% 29.99 in 10.0 mi WNW 10.4 mph 16.1 mph N/A   Scattered Clouds
4:54 PM 72.0 °F 43.0 °F 35% 29.98 in 10.0 mi North 12.7 mph - N/A   Partly Cloudy
5:54 PM 71.1 °F 44.1 °F 38% 29.98 in 10.0 mi NNW 6.9 mph - N/A   Partly Cloudy
6:54 PM 69.1 °F 45.0 °F 42% 29.97 in 10.0 mi NW 3.5 mph - N/A   Partly Cloudy
7:54 PM 66.9 °F 42.1 °F 40% 29.97 in 10.0 mi Calm Calm - N/A   Partly Cloudy
8:54 PM 61.0 °F 46.0 °F 58% 29.97 in 10.0 mi SW 4.6 mph - N/A   Clear
9:54 PM 57.9 °F 48.0 °F 70% 29.97 in 10.0 mi WSW 4.6 mph - N/A   Clear
10:54 PM 57.9 °F 46.9 °F 67% 29.96 in 10.0 mi WSW 4.6 mph - N/A   Clear
11:54 PM 55.0 °F 48.0 °F 77% 29.96 in 10.0 mi WSW 5.8 mph - N/A   Clear